Location: Helion Bumpstead
(52.0500°N, 0.4000°E)
Time: 21:34:39
(UTC+00:00)

SL-16 R/B - Pass Details

Date: 15 November 2025
Orbit: 840 x 847 km, 71.0° (Epoch: 14 December)

Event Time Altitude Azimuth Distance (km) Brightness Sun altitude
Rises 06:17:09 0° 230° (SW) 3,401 5.0 -9.5°
Reaches altitude 10° 06:19:41 10° 237° (WSW) 2,470 4.3 -9.1°
Maximum altitude 06:25:08 46° 310° (NW) 1,130 2.5 -8.3°
Drops below altitude 10° 06:30:37 10° 24° (NNE) 2,483 4.7 -7.5°
Sets 06:33:11 0° 30° (NNE) 3,421 5.5 -7.1°
